User: anonymous   Login
Location: Ago
(8.4667°N, 4.4167°E)
Time: 16:23:40
(UTC+00:00)
Language:

Cosmos 1743 - Orbit

View from above orbital plane
View from above orbital plane
View from above satellite
View from above satellite

Ground track
Ground track

The orbit data is extracted from the following two-line orbital elements,

1 16719U 86034A   20225.50056094  .00000613  00000-0  30494-4 0  9999
2 16719  82.5531 302.5648 0010480 247.8513 122.8684 15.15716204870212
Epoch (UTC): 12 August 2020 12:00:48
Eccentricity: 0.0010480
inclination: 82.5531°
perigee height: 511 km
apogee height: 526 km
right ascension of ascending node: 302.5648°
argument of perigee: 247.8513°
revolutions per day: 15.15716204
mean anomaly at epoch: 122.8684°
orbit number at epoch: 87021

The dashed part of the orbit path shows where the satellite is in the earth's shadow,  

DLR